Chamberlain, SD

5:46 PM CST on December 04, 2016 (GMT -0600)
Chamberlain

Weather History for K9V9 - December, 2012

Change the Weather History Date:

Wednesday, December 5, 2012

  Actual Average Record
Temperature  
Mean Temperature 44 °F -  
Max Temperature 60 °F 35 °F 60 °F (2012)
Min Temperature 28 °F 18 °F -8 °F (2013)
Degree Days  
Heating Degree Days 21    
Moisture  
Dew Point 23 °F    
Average Humidity 48    
Maximum Humidity 75    
Minimum Humidity 25    
Precipitation  
Precipitation 0.00 in - - ()
Sea Level Pressure  
Sea Level Pressure 29.86 in    
Wind  
Wind Speed 14 mph (SSE)    
Max Wind Speed 16 mph    
Max Gust Speed 23 mph    
Averages and records for this station are not official NWS values.
T = Trace of Precipitation, MM = Missing Value Source: NWS Daily Summary

Daily Weather History Graph

Daily Weather History Graph

Search for Another Location

Airport or City:

Trip Planner

Search our weather history database for the weather conditions in past years. The results will help you decide how hot, cold, wet, or windy it might be!

Date:

Astronomy

Dec. 05, 2012 Rise Set
Actual Time 7:56 AM CST 5:00 PM CST
Civil Twilight 7:23 AM CST 5:32 PM CST
Nautical Twilight 6:47 AM CST 6:08 PM CST
Astronomical Twilight 6:12 AM CST 6:43 PM CST
Moon No Moon Rise 12:11 PM CST (12/5)
Length of Visible Light 10h 09m
Length of Day
9h 04m
Waning Gibbous, 59% of the Moon is Illuminated
Dec 5
Waning Gibbous
Dec 6
Last Quarter
Dec 13
New
Dec 19
First Quarter
Dec 28
Full

Hourly Weather History & Observations

Time (CST) Temp. Windchill Dew Point Humidity Pressure Visibility Wind Dir Wind Speed Gust Speed Precip Events Conditions
12:52 AM 30.0 °F 18.7 °F 21.0 °F 69% 30.17 in - SE 16.1 mph - N/A   Unknown
1:52 AM 30.0 °F 18.7 °F 21.0 °F 69% 30.13 in - SE 16.1 mph - N/A   Unknown
2:52 AM 30.0 °F 19.1 °F 21.9 °F 72% 30.12 in - SE 15.0 mph 23.0 mph N/A   Unknown
3:52 AM 30.0 °F 18.7 °F 21.9 °F 72% 30.10 in - SE 16.1 mph - N/A   Unknown
4:52 AM 28.9 °F 17.7 °F 21.0 °F 72% 30.07 in - SE 15.0 mph - N/A   Unknown
5:52 AM 28.9 °F 18.6 °F 21.0 °F 72% 30.05 in - SE 12.7 mph - N/A   Unknown
6:52 AM 28.0 °F 18.1 °F 21.0 °F 75% 30.04 in - SE 11.5 mph - N/A   Unknown
8:52 AM 32.0 °F 23.6 °F 21.9 °F 66% 29.99 in - SE 10.4 mph - N/A   Unknown
9:52 AM 37.9 °F 30.9 °F 21.9 °F 53% 29.96 in - SE 10.4 mph - N/A   Unknown
10:52 AM 45.0 °F 38.5 °F 21.9 °F 40% 29.92 in - South 13.8 mph - N/A   Unknown
11:52 AM 50.0 °F - 21.0 °F 32% 29.85 in - SSE 16.1 mph - N/A   Unknown
12:52 PM 55.0 °F - 24.1 °F 30% 29.78 in - SSE 15.0 mph - N/A   Unknown
1:52 PM 57.0 °F - 24.1 °F 28% 29.75 in - SSE 15.0 mph - N/A   Unknown
2:52 PM 57.9 °F - 23.0 °F 26% 29.71 in - SE 13.8 mph - N/A   Unknown
3:52 PM 60.1 °F - 24.1 °F 25% 29.69 in - SSE 13.8 mph - N/A   Unknown
4:52 PM 53.1 °F - 25.0 °F 34% 29.68 in - SE 6.9 mph - N/A   Unknown
5:52 PM 53.1 °F - 25.0 °F 34% 29.67 in - SSE 8.1 mph - N/A   Unknown
6:52 PM 55.0 °F - 25.0 °F 31% 29.66 in - SSW 11.5 mph - N/A   Unknown
7:52 PM 52.0 °F - 25.0 °F 35% 29.68 in - SW 10.4 mph - N/A   Unknown
8:52 PM 51.1 °F - 25.0 °F 36% 29.69 in - West 10.4 mph - N/A   Unknown
9:52 PM 50.0 °F - 27.0 °F 41% 29.70 in - WNW 9.2 mph - N/A   Unknown
10:52 PM 48.9 °F - 26.1 °F 41% 29.72 in - NW 16.1 mph - N/A   Unknown
11:52 PM 46.0 °F 41.0 °F 27.0 °F 47% 29.74 in - WNW 10.4 mph - N/A   Unknown